Regional Weather Roundup
Issued by NWS

Home | Current Version | Previous Version | Text Only | Print | Product List | Glossary Off
Versions: 1 2 3 4 5 6 7 8 9 10 11 12 13 14 15 16 17 18 19 20 21 22 23 24 25 26 27 28 29 30 31 32 33 34 35 36 37 38 39 40 41 42 43 44 45 46 47 48 49 50

000
ASUS45 KCYS 280710
RWRWY

WYOMING REGIONAL WEATHER ROUNDUP
NATIONAL WEATHER SERVICE CHEYENNE WY
100 AM MDT SAT MAR 28 2015

NOTE:  "FAIR" INDICATES FEW OR NO CLOUDS BELOW 12,000 FEET
WITH NO SIGNIFICANT WEATHER AND/OR OBSTRUCTIONS TO VISIBILITY.

WYZ001-280800-
YELLOWSTONE NATIONAL PARK

CITY           SKY/WX    TMP DP  RH WIND       PRES   REMARKS
LK YELLOWSTONE   N/A     27  24  89 CALM      30.22F
W YELLOWSTONE  NOT AVBL

$$
WYZ002>013-054>058-071-098>099-280800-
NORTHERN WYOMING

CITY           SKY/WX    TMP DP  RH WIND       PRES   REMARKS
JACKSON        FAIR      34  30  86 N8        30.20F WCI  27
CODY           FAIR      57  28  33 SW10G20   30.03S
GREYBULL       FAIR      49  30  48 SE7       30.00S
WORLAND        FAIR      42  31  64 SE6       30.01S
SHERIDAN       FAIR      48  29  47 CALM      29.95F
BUFFALO        FAIR      55  28  35 SW8       30.01F
GILLETTE       FAIR      36  31  82 VRB3      29.98F
HULETT         FAIR      41  32  70 S9        29.99S
NEWCASTLE      FAIR      39  30  70 N5        30.00S

$$
WYZ014>020-022>026-101>103-280800-
CENTRAL WYOMING

CITY           SKY/WX    TMP DP  RH WIND       PRES   REMARKS
BIG PINEY      FAIR      32  24  72 E3        30.24F
PINEDALE       FAIR      30  28  93 W3        30.26S
DUBOIS         FAIR      41  28  60 NW10      30.18F
LANDER         FAIR      53  22  29 SW12      30.09F
RIVERTON       FAIR      50  28  42 NW14      30.10F
CASPER         FAIR      43  27  53 SW7       30.08F
DOUGLAS        FAIR      39  25  57 CALM      30.06S

$$
WYZ021-027>030-104>119-280800-
SOUTHERN WYOMING

CITY           SKY/WX    TMP DP  RH WIND       PRES   REMARKS
EVANSTON       FAIR      44  25  47 SE3       30.25F
KEMMERER       FAIR      36  30  80 NW3       30.26S
FORT BRIDGER   FAIR      45  25  45 W9        30.27F
ROCK SPRINGS   FAIR      45  25  45 SW6       30.22F
DIXON          FAIR      36  26  68 CALM      30.25S
RAWLINS        FAIR      43  20  39 SW5       30.19S
SARATOGA       FAIR      41  21  45 MISG      30.21S
LARAMIE        FAIR      33  26  75 SE8       30.17F WCI  26
CHEYENNE       FAIR      43  25  49 W12       30.11F
TORRINGTON     FAIR      43  27  53 CALM      30.01S
PINE BLUFFS    FAIR      37  28  70 W10       30.08S WCI  30

$$



USA.gov is the U.S. government's official web portal to all federal, state and local government web resources and services.